Location: Nakusp
(50.2330°N, 117.8000°W)
Time: 03:27:50
(UTC-07:00)

Daily predictions for brighter satellites

Satellite Brightness Start Highest point End
(mag) Time Altitude Azimuth Time Altitude Azimuth Time Altitude Azimuth
Cosmos 2360 Rocket 2.4 00:09:18 67° WNW 00:09:25 67° WNW 00:15:06 10° NNE
Cosmos 1680 Rocket 4.2 00:15:37 48° NE 00:15:37 48° NE 00:19:33 10° NNE
CZ-4B R/B 4.0 00:19:33 22° N 00:19:33 22° N 00:21:00 10° N
H-2A R/B 4.4 00:19:47 12° W 00:20:17 12° W 00:22:05 10° WNW
Cosmos 1655 Rocket 4.0 00:16:24 10° N 00:22:46 71° ENE 00:22:48 71° E
Lacrosse 4 Rocket 3.0 00:27:21 35° NNE 00:27:21 35° NNE 00:30:03 10° NNE
Cosmos 2219 Rocket 3.0 00:31:10 42° ENE 00:31:10 42° ENE 00:35:10 10° NE
Cosmos 2263 Rocket 4.4 00:28:34 10° WNW 00:30:33 12° W 00:30:33 12° W
Cosmos 1953 4.2 00:36:40 29° NNW 00:36:40 29° NNW 00:38:56 10° N
Cosmos 1818 3.9 00:30:59 10° NW 00:35:59 62° NNE 00:35:59 62° NNE
Cosmos 2322 Rocket 4.3 00:38:24 10° W 00:42:44 22° NW 00:47:06 10° NNE
Cosmos 1092 Rocket 4.5 00:38:05 10° NNW 00:44:09 48° W 00:44:11 48° W
Cosmos 2056 Rocket 4.0 00:40:28 10° NNW 00:44:39 56° NW 00:44:39 56° NW
SL-16 R/B 3.9 00:47:17 22° E 00:47:17 22° E 00:50:22 10° NE
ATLAS CENTAUR R/B 3.9 00:43:44 10° NNW 00:47:18 21° NNE 00:49:30 15° ENE
Cosmos 2333 4.4 00:49:08 72° N 00:49:08 72° N 00:54:24 10° NNE
Cosmos 2297 3.9 00:43:29 10° NNW 00:48:56 66° NE 00:48:56 66° NE
Cosmos 2237 Rocket 3.0 00:50:39 42° ENE 00:50:39 42° ENE 00:54:52 10° NE
Cosmos 1634 Rocket 4.0 00:50:32 74° W 00:50:32 74° W 00:56:54 10° N
Cosmos 2333 Rocket 2.8 00:51:43 50° ENE 00:51:43 50° ENE 00:56:15 10° NE
Cosmos 1980 4.3 00:55:33 48° ENE 00:55:33 48° ENE 00:59:54 10° NE
ATLAS 3B R/B 3.1 00:57:28 54° ESE 00:57:28 54° ESE 01:04:20 10° NE
CZ-4C R/B 4.1 01:06:22 19° E 01:06:22 19° E 01:09:10 10° ENE
COSMOS 2455 3.1 01:06:04 59° ENE 01:06:04 59° ENE 01:11:10 10° NE
Cosmos 2279 Rocket 3.9 01:06:57 85° N 01:06:57 85° N 01:13:00 10° N
COSMOS 2428 3.2 01:07:00 52° WNW 01:07:09 52° NW 01:12:45 10° NNE
H-2A R/B 4.1 01:03:43 10° N 01:06:03 31° N 01:06:03 31° N
Cosmos 1633 Rocket 4.4 01:07:56 10° N 01:10:54 38° NNE 01:10:54 38° NNE
Cosmos 2221 3.9 01:18:43 38° NNE 01:18:43 38° NNE 01:21:31 10° NNE
Meteor 1-16 Rocket 4.3 01:18:58 69° NNE 01:18:58 69° NNE 01:23:47 10° NNE
Cosmos 2278 Rocket 3.3 01:14:44 10° NW 01:18:29 35° WNW 01:18:29 35° WNW
Cosmos 2180 Rocket 4.4 01:21:35 84° WNW 01:21:35 84° WNW 01:27:45 10° N
Sich 1 4.3 01:17:16 10° N 01:20:10 40° N 01:20:10 40° N
Timation 1 Rocket 4.3 01:15:47 10° NNW 01:21:38 78° NE 01:21:38 78° NE
Meteor 2-1 Rocket 4.4 01:23:34 65° NE 01:23:34 65° NE 01:28:32 10° NNE
Cosmos 2266 Rocket 3.9 01:17:39 10° N 01:24:05 80° E 01:24:17 79° ESE
CZ-2C R/B 3.9 01:36:13 38° NW 01:36:13 38° NW 01:39:39 10° NNW
CZ-2C R/B 3.0 01:37:10 10° N 01:42:24 57° WNW 01:42:24 57° WNW
Cosmos 1452 Rocket 4.3 01:40:27 10° NNW 01:44:10 42° NW 01:44:10 42° NW
Cosmos 1867 4.4 01:48:02 43° E 01:48:02 43° E 01:52:20 10° NE
Cosmos 1607 4.2 01:52:11 55° ESE 01:52:11 55° ESE 01:57:55 10° NE
USA 238 DEB 3.8 01:53:05 58° SE 01:53:27 59° SE 02:00:21 10° NE
USA 238 3.8 01:53:12 58° SE 01:53:33 58° SE 02:00:26 10° NE
Cosmos 2360 Rocket 4.4 01:51:03 11° WNW 01:54:33 19° NW 01:58:29 10° N
NOSS 0 Rocket 4.2 01:56:08 55° WNW 01:56:47 57° NW 02:02:53 10° NNE
PSLV R/B 4.4 01:57:07 10° NNE 02:01:13 54° ENE 02:01:13 54° ENE
Cosmos 2369 Rocket 3.2 01:57:35 10° NNW 02:02:56 43° NE 02:06:18 21° ESE
Lacrosse 4 Rocket 3.9 02:03:40 15° NW 02:05:09 17° NNW 02:08:06 10° N
BREEZE-M DEB (TANK) 4.1 01:52:00 10° WNW 02:07:56 69° SSW 02:07:56 69° SSW
NOSS 3-2 (A) 4.4 02:08:07 33° ESE 02:08:30 33° ESE 02:14:20 10° NE
Aureole 2 Rocket 3.9 02:13:20 45° NNE 02:13:20 45° NNE 02:16:25 10° NNE
Cosmos 1328 Rocket 4.3 02:14:47 50° N 02:14:47 50° N 02:18:03 10° N
Cosmos 2219 Rocket 3.3 02:12:52 31° WNW 02:13:56 34° NW 02:19:02 10° NNE
Cosmos 1626 4.3 02:10:55 10° NNW 02:12:26 22° NNW 02:12:26 22° NNW
NOSS 3-3 (A) 4.3 02:07:46 10° NW 02:15:05 90° SW 02:20:22 23° SE
NOSS 3-3 (C) 4.3 02:07:51 10° NW 02:15:11 90° NE 02:20:39 22° SE
Cosmos 1437 Rocket 4.3 02:17:26 34° NNW 02:17:26 34° NNW 02:20:08 10° N
Cosmos 1943 Rocket 3.9 02:16:36 10° NNW 02:21:38 31° NE 02:26:38 10° ESE
Cosmos 1271 Rocket 4.3 02:25:58 31° E 02:25:58 31° E 02:29:10 10° NNE
NOSS 3-2 (C) 4.4 02:25:12 34° SE 02:26:07 35° ESE 02:32:05 10° NE
ATLAS CENTAUR R/B 2.5 02:22:38 10° NW 02:25:44 41° NNW 02:25:44 41° NNW
Exosat Rocket 4.4 02:22:24 10° NW 02:26:03 40° WNW 02:26:03 40° WNW
SL-16 R/B 2.2 02:29:09 66° W 02:29:35 69° WNW 02:35:18 10° NNE
Cosmos 2237 Rocket 3.2 02:32:27 33° WNW 02:33:38 36° NW 02:38:53 10° NNE
Cosmos 2228 Rocket 4.0 02:35:31 42° NW 02:35:31 42° NW 02:39:13 10° N
ERS-2 4.4 02:32:30 10° NE 02:35:04 18° E 02:35:15 17° E
Cosmos 2333 Rocket 3.4 02:33:43 28° WNW 02:35:13 32° NW 02:40:24 10° NNE
Cosmos 1515 Rocket 4.1 02:41:24 50° NNW 02:41:24 50° NNW 02:44:57 10° N
Cosmos 1340 Rocket 3.5 02:39:28 10° N 02:42:32 50° N 02:42:32 50° N
Cosmos 1869 Rocket 3.8 02:39:51 10° N 02:44:17 66° ENE 02:44:22 66° E
ATLAS 3B R/B 3.4 02:44:42 32° W 02:48:06 53° NW 02:55:13 10° NE
COSMOS 2455 4.0 02:49:12 26° WNW 02:51:34 34° NW 02:57:03 10° NNE
CZ-4C R/B 2.1 02:51:33 63° WSW 02:52:31 84° NW 02:58:50 10° NE
Coronas F rocket 4.3 02:50:05 10° N 02:50:51 16° NNE 02:50:51 16° NNE
Cosmos 1908 4.4 02:54:18 36° NW 02:54:18 36° NW 02:57:05 10° N
ATLAS 5 CENTAUR R/B 3.7 02:56:50 18° SE 02:58:06 20° ESE 03:01:50 10° ENE
Cosmos 839 Rocket 4.4 02:49:44 10° NW 02:58:23 70° WSW 03:02:40 26° SSE
SL-24 R/B 4.4 02:59:15 53° SE 03:00:16 75° ENE 03:05:16 10° NNW
S3M 3.9 02:59:47 51° SSW 03:01:30 85° W 03:07:54 10° N
IRS-1C 4.2 02:58:15 10° NNE 03:03:37 73° ESE 03:04:58 50° S
Cosmos 1048 Rocket 4.1 03:03:21 57° WSW 03:04:08 64° WNW 03:09:29 10° NNE
Cosmos 1302 Rocket 4.2 03:00:20 10° NNW 03:05:37 71° ENE 03:09:06 21° SE
BREEZE-M DEB (TANK) 3.5 03:07:03 42° SSW 03:09:11 60° SSE 03:12:49 10° ENE
In-Cosmos 22 Rocket 3.9 03:06:00 10° NNW 03:11:19 75° W 03:12:31 54° SSW
Cosmos 1603 3.7 03:11:03 54° SW 03:12:24 78° WNW 03:18:11 10° NNE
SL-16 R/B 2.6 03:08:39 20° SSE 03:13:11 79° ENE 03:19:24 10° NNW
Cosmos 1386 Rocket 4.4 03:07:03 10° NNW 03:13:23 80° W 03:15:56 38° S
Cosmos 1892 3.3 03:10:37 10° N 03:14:26 55° ENE 03:15:12 45° ESE
IRS-1D 4.3 03:10:50 10° NNE 03:15:54 49° E 03:18:23 28° SSE
Spot 4 Rocket 4.2 03:11:06 10° NNE 03:16:16 69° ESE 03:17:59 42° S
SL-08 R/B 4.1 03:19:44 35° WNW 03:19:44 35° WNW 03:23:26 10° NNW
Cosmos 1331 Rocket 4.0 03:14:26 10° NNW 03:19:37 58° WSW 03:20:19 53° SW
Cosmos 1726 2.1 03:19:59 76° NNW 03:19:59 76° NNW 03:23:30 10° N
Cosmos 1745 Rocket 4.1 03:13:35 10° NNW 03:19:48 56° W 03:21:35 43° SW
Cosmos 1553 Rocket 4.0 03:18:40 45° SW 03:20:26 64° WNW 03:26:31 10° N
IRS-P3 4.4 03:15:29 10° N 03:20:41 55° WNW 03:21:51 45° WSW
ERBS 2.8 03:21:21 59° N 03:21:21 59° N 03:24:39 10° NE
Cosmos 1733 Rocket 4.0 03:17:11 10° N 03:21:26 47° ENE 03:24:38 17° SE
Cosmos 1709 Rocket 4.1 03:15:03 10° N 03:21:28 78° E 03:26:15 18° SSE
CZ-2D R/B 2.9 03:17:08 10° NNE 03:22:14 46° E 03:25:08 23° SSE
ARIANE 5 R/B 2.9 03:18:11 10° NNE 03:23:24 59° E 03:25:47 31° SSE
SeaSat 1 3.3 03:23:34 10° SE 03:28:20 52° NE 03:33:09 10° NNW
Cosmos 1151 Rocket 4.0 03:28:50 33° WNW 03:28:50 33° WNW 03:32:50 10° N
Cosmos 1707 Rocket 3.5 03:29:13 59° SSW 03:30:01 78° W 03:34:32 10° N
ADEOS 3.5 03:24:53 10° NNE 03:30:08 87° WNW 03:31:58 42° SSW
Cosmos 1867 4.4 03:28:42 30° W 03:30:47 43° NW 03:36:02 10° NNE
Meteor 2-3 Rocket 3.8 03:27:52 10° NNW 03:33:34 61° W 03:35:46 37° SSW
USA 234 3.9 03:28:36 10° ENE 03:34:51 45° SE 03:38:01 27° S
Cosmos 158 Rocket 4.1 03:33:39 45° WSW 03:34:54 58° WNW 03:39:49 10° NNE
AQUA 4.1 03:30:59 10° N 03:35:37 51° WNW 03:36:36 43° WSW
Cosmos 1300 3.1 03:36:03 45° WNW 03:36:03 45° WNW 03:39:40 10° N
Cosmos 1943 3.2 03:38:42 37° SSW 03:41:05 84° ESE 03:46:47 10° NNE
Meteor 1-4 Rocket 3.8 03:42:32 27° NW 03:42:32 27° NW 03:45:09 10° N
NPP 4.2 03:37:53 10° N 03:42:59 43° WNW 03:44:40 33° WSW
UNK 3.6 03:42:00 37° S 03:43:44 68° WSW 03:48:20 10° NNW
USA 238 DEB 4.4 03:40:31 24° W 03:44:40 49° NNW 03:51:29 10° NE
USA 238 4.3 03:40:38 24° W 03:44:45 49° NNW 03:51:35 10° NE
Cosmos 2369 Rocket 2.6 03:41:46 10° NW 03:46:56 39° WSW 03:47:59 36° SW
CZ-3A R/B 3.2 03:42:40 16° W 03:47:27 55° NNW 03:51:29 10° ENE
Cosmos 1455 2.6 03:47:05 31° SSE 03:48:43 62° E 03:52:36 10° NNE
Abrixas rocket 2.3 03:51:04 59° SSE 03:51:04 59° SSE 03:54:09 10° ESE
Resurs 1-4 Rocket 2.1 03:47:25 10° NNE 03:52:43 82° ESE 03:55:55 25° S
Cosmos 2292 Rocket 3.0 03:53:18 10° NNW 03:55:53 49° WNW 03:55:53 49° WNW
Cosmos 724 4.3 03:55:18 29° SSW 03:58:28 80° SE 04:04:35 10° NE
Okean O Rocket 3.1 03:54:39 10° NNE 03:58:45 34° E 04:02:50 10° SSE
NOSS 3-2 (A) 3.7 03:55:30 29° WSW 03:58:56 66° NW 04:05:50 10° NE
Cosmos 1992 Rocket 4.3 03:54:25 10° NNW 03:59:40 68° ENE 04:04:52 10° SSE
Cosmos 1271 Rocket 4.0 04:01:11 26° W 04:01:39 26° WNW 04:05:06 10° N
SL-27 R/B 4.1 04:00:54 15° SSE 04:03:21 32° ESE 04:06:35 10° NE
Cosmos 1408 3.6 04:00:57 10° N 04:04:36 48° ENE 04:08:15 10° SSE
ARGOS Delta rocket 4.3 04:00:39 10° NNE 04:04:59 52° E 04:09:00 12° S
Cosmos 1943 Rocket 2.2 04:00:11 10° NW 04:05:47 61° WSW 04:11:20 10° SSE
Cosmos 2251 Rocket 3.8 04:03:50 30° WSW 04:06:11 51° WNW 04:11:19 10° NNE
Pageos (A) 3.7 04:05:50 10° N 04:07:56 47° E 04:08:21 38° ESE
ERS-2 2.6 04:05:31 10° N 04:09:05 44° WNW 04:10:04 35° WSW
CENTAUR R/B 3.2 04:07:19 16° S 04:12:06 50° ESE 04:18:48 10° NE
Sich 1 Rocket 3.5 04:09:32 10° N 04:13:58 88° ENE 04:18:22 10° S
MTI 3.8 04:12:35 25° S 04:14:20 66° WSW 04:17:41 10° NNW
SL-16 R/B 4.1 04:11:03 11° WNW 04:14:49 19° NW 04:18:49 10° N
NOSS 3-2 (C) 3.8 04:12:39 24° WSW 04:16:40 64° NW 04:23:36 10° NE
Cosmos 1825 2.4 04:15:19 10° N 04:19:08 73° E 04:22:55 10° SSE
Cosmos 2285 Rocket 4.0 04:14:25 10° NNW 04:20:54 82° WSW 04:27:17 10° SSE
IRS-1C Rocket 4.5 04:19:45 10° NNE 04:25:01 64° ESE 04:30:15 10° S
Cosmos 2315 Rocket 4.2 04:20:56 19° SSW 04:25:24 57° WNW 04:31:38 10° N
Cosmos 1656 Rocket 3.5 04:29:28 10° NNW 04:34:54 71° WSW 04:40:17 10° SSE
Cosmos 1862 Rocket 3.7 04:35:58 17° SSW 04:39:11 54° WNW 04:43:33 10° N
ATLAS 3B R/B 4.3 04:34:04 10° WNW 04:40:26 29° N 04:46:31 10° NE
CZ-4C R/B 3.7 04:36:45 10° W 04:41:57 32° NNW 04:47:48 10° NE
ATLAS 5 CENTAUR R/B 1.9 04:38:24 18° SW 04:42:06 79° NW 04:47:33 10° NE
USA 129 3.7 04:42:08 10° SE 04:43:20 22° ENE 04:44:40 10° NNE
UNKNOWN OBJECT B 3.3 04:41:56 10° N 04:45:25 38° WNW 04:47:50 17° SW
Cosmos 1862 3.4 04:42:25 10° NNW 04:46:19 52° W 04:50:10 10° S
Okean 1-7 3.9 04:43:46 10° S 04:47:57 51° E 04:52:12 10° NNE
Cosmos 1184 Rocket 4.2 04:45:27 10° NW 04:48:08 21° W 04:49:14 18° WSW
Okean 2 Rocket 3.2 04:45:11 10° N 04:49:43 84° E 04:54:15 10° S
SL-16 R/B 3.7 04:53:44 13° SW 04:57:30 21° W 05:02:07 10° NW
ERBS 4.1 04:55:23 10° WNW 04:58:28 27° N 05:01:33 10° NE
CZ-2C R/B 4.0 04:54:20 10° S 04:58:31 41° W 05:02:44 10° NNW
Cosmos 1733 Rocket 4.4 04:55:41 10° NW 04:58:56 21° W 05:01:40 12° SW
Cosmos 1869 4.2 04:56:06 14° SW 04:58:56 31° WNW 05:02:31 10° N
Cosmos 389 Rocket 3.2 04:57:23 14° SW 05:00:02 36° WNW 05:03:20 10° N
CZ-2D R/B 3.0 04:57:32 10° N 05:02:09 31° WNW 05:06:28 11° WSW
ARIANE 5 R/B 3.8 04:57:56 10° N 05:02:11 25° WNW 05:06:07 11° WSW
SeaSat 1 3.2 05:01:47 10° S 05:06:05 30° WSW 05:10:25 10° NW
Cosmos 1782 Rocket 3.7 05:04:28 10° NNW 05:08:42 52° W 05:12:55 10° S
Nadezhda 1 Rocket 4.1 05:02:58 10° SSW 05:09:14 72° WNW 05:15:39 10° N
CZ-4B R/B 2.6 05:05:52 10° N 05:09:29 67° WNW 05:13:13 10° SSW
Cosmos 1933 3.7 05:06:52 10° SSW 05:10:50 47° WNW 05:14:50 10° N
Meteor 1-14 Rocket 4.3 05:06:29 10° NNW 05:12:18 78° W 05:18:12 10° S
Cosmos 2278 4.0 05:09:54 10° NNW 05:15:39 76° ENE 05:21:23 10° SE
USA 234 3.4 05:11:36 10° ENE 05:18:10 78° NNW 05:24:42 10° WSW
COSMOS 2487 2.9 05:17:44 10° SSW 05:21:19 66° ESE 05:24:55 10° NNE
Cosmos 2181 Rocket 4.4 05:17:52 10° S 05:24:16 74° E 05:30:38 10° NNE
Cosmos 1455 4.2 05:22:41 10° W 05:24:53 14° WNW 05:27:06 10° NNW
Abrixas rocket 3.3 05:24:41 10° W 05:27:35 27° SSW 05:30:29 10° SE
Cosmos 1980 Rocket 4.3 05:24:40 10° NNW 05:29:46 32° NE 05:34:49 10° ESE
COSMOS 2406 3.4 05:24:10 10° SW 05:29:53 62° WNW 05:35:36 10° NNE
Cosmos 2369 3.9 05:24:12 10° NNW 05:29:59 85° ENE 05:35:44 10° SSE
Cosmos 1570 Rocket 4.4 05:26:58 10° NNW 05:32:14 70° ENE 05:37:26 10° SSE
Cosmos 1295 Rocket 4.5 05:26:39 10° N 05:32:47 85° W 05:38:57 10° S
Cosmos 2154 Rocket 4.2 05:27:31 10° NNW 05:33:37 52° W 05:39:43 10° SSW
